Regional Weather Roundup
Issued by NWS

Home | Current Version | Previous Version | Graphics & Text | Print | Product List | Glossary On
Versions: 1 2 3 4 5 6 7 8 9 10 11 12 13 14 15 16 17 18 19 20 21 22 23 24 25 26 27 28 29 30 31 32 33 34 35 36 37 38 39 40 41 42 43 44 45 46 47 48 49 50
000
ASUS43 KDTX 231210
RWRMI
MICHIGAN HOURLY REGIONAL WEATHER ROUNDUP
NATIONAL WEATHER SERVICE DETROIT/PONTIAC MI
800 AM EDT THU MAR 23 2017

NOTE: "FAIR" INDICATES FEW OR NO CLOUDS BELOW 12,000 FEET WITH NO
SIGNIFICANT WEATHER AND/OR OBSTRUCTION TO VISIBILITY.

MIZ047>049-052>055-059>063-066>070-074>076-081>083-231300-
SOUTHEAST LOWER MICHIGAN

CITY           SKY/WX    TMP DP  RH WIND       PRES   REMARKS
ADRIAN         PTCLDY    22  16  78 S3        30.55R
6HR MIN TEMP:  21; 6HR MAX TEMP:  24;

ALMA           CLOUDY    24  19  82 S3        30.52S
ANN ARBOR      CLOUDY    19  16  88 CALM      30.54R
BAD AXE        CLOUDY    20  17  85 S3        30.55R
6HR MIN TEMP:  15; 6HR MAX TEMP:  21;

CARO           CLEAR     17  15  94 CALM      30.54R
DETROIT CITY   CLEAR     23  14  68 CALM      30.57R
6HR MIN TEMP:  20; 6HR MAX TEMP:  23;

DETROIT        CLOUDY    25  15  66 E5        30.57R WCI  19
6HR MIN TEMP:  24; 6HR MAX TEMP:  25;

FLINT          CLOUDY    21  16  81 CALM      30.54R
6HR MIN TEMP:  19; 6HR MAX TEMP:  23;

GROSSE ILE     CLEAR     25  15  66 E3        30.55R
6HR MIN TEMP:  24; 6HR MAX TEMP:  25;

HILLSDALE      CLOUDY    21  14  73 SE7       30.50R WCI  13
HOWELL         CLOUDY    19  15  84 SE5       30.52S WCI  12
6HR MIN TEMP:  19; 6HR MAX TEMP:  24;


CITY           SKY/WX    TMP DP  RH WIND       PRES   REMARKS
JACKSON        PTCLDY    21  14  74 SE5       30.52R WCI  15
6HR MIN TEMP:  21; 6HR MAX TEMP:  24;

LAMBERTVILLE   CLOUDY    21  17  84 CALM      30.55R
6HR MIN TEMP:  19; 6HR MAX TEMP:  25;

LANSING        CLOUDY    23  15  71 SE6       30.53R WCI  16
6HR MIN TEMP:  22; 6HR MAX TEMP:  25;

LAPEER         FAIR      17  16  93 CALM      30.55R
6HR MIN TEMP:  16; 6HR MAX TEMP:  20;

MASON          CLOUDY    23  19  85 SE3       30.52R
MONROE         CLOUDY    28  17  66 S5        30.55R WCI  22
6HR MIN TEMP:  20; 6HR MAX TEMP:  28;

MT. CLEMENS    MOCLDY    22  16  78 SE5       30.55R WCI  16
6HR MIN TEMP:  18; 6HR MAX TEMP:  24;

PONTIAC        CLOUDY    22  13  68 S3        30.53R
6HR MIN TEMP:  21; 6HR MAX TEMP:  23;

PORT HOPE        N/A     22  17  81 CALM      30.53S
6HR MIN TEMP:  18; 6HR MAX TEMP:  22;

PORT HURON     CLOUDY    18  12  79 CALM      30.57R
TRI CITIES     PTCLDY    24  18  77 S8        30.53S WCI  15
6HR MIN TEMP:  23; 6HR MAX TEMP:  25;

MIDLAND        FAIR      25  17  71 S3        30.53R
6HR MIN TEMP:  19; 6HR MAX TEMP:  26;

TROY           CLOUDY    24  13  65 CALM      30.58R
SAGINAW HB     PTCLDY    23  18  80 SE5       30.54R WCI  17
$$
MIZ043>046-050>051-056>058-064>065-071>073-077>080-231300-
SOUTHWEST LOWER MICHIGAN

CITY           SKY/WX    TMP DP  RH WIND       PRES   REMARKS
BATTLE CREEK   PTCLDY    24  15  68 SE7       30.50R WCI  16
6HR MIN TEMP:  23; 6HR MAX TEMP:  28;

BENTON HARBOR  CLOUDY    27  16  63 SE9       30.46S WCI  18
6HR MIN TEMP:  20; 6HR MAX TEMP:  27;

BIG RAPIDS     PTCLDY    20  17  89 CALM      30.47S
6HR MIN TEMP:  17; 6HR MAX TEMP:  20;

COLDWATER      CLOUDY    24  15  68 SE7       30.50S WCI  16
6HR MIN TEMP:  24; 6HR MAX TEMP:  26;

FREMONT        FAIR      26  15  63 SE7       30.47S WCI  18
HOLLAND        PTCLDY    25  17  72 SE9       30.47F WCI  15
6HR MIN TEMP:  22; 6HR MAX TEMP:  25;

GRAND RAPIDS   CLOUDY    24  15  68 SE7       30.49S WCI  16
6HR MIN TEMP:  23; 6HR MAX TEMP:  27;

IONIA          FAIR      24  17  74 S6        30.50R WCI  17
6HR MIN TEMP:  23; 6HR MAX TEMP:  27;

KALAMAZOO      MOCLDY    25  14  63 SE7       30.49S WCI  17
6HR MIN TEMP:  25; 6HR MAX TEMP:  28;

LUDINGTON      PTCLDY    27  18  67 SE6       30.46R WCI  21
6HR MIN TEMP:  17; 6HR MAX TEMP:  27;

MARSHALL       CLOUDY    22  15  74 SE5       30.50R WCI  16
6HR MIN TEMP:  22; 6HR MAX TEMP:  26;

MOUNT PLEASANT PTCLDY    22  16  76 CALM      30.50R
6HR MIN TEMP:  19; 6HR MAX TEMP:  23;

MUSKEGON       CLOUDY    25  17  72 SE8       30.48S WCI  16
6HR MIN TEMP:  21; 6HR MAX TEMP:  26;

SOUTH HAVEN    CLOUDY    26  18  72 SE6       30.46S WCI  19
$$
MIZ016>042-231300-
NORTHERN LOWER MICHIGAN

CITY           SKY/WX    TMP DP  RH WIND       PRES   REMARKS
ALPENA         CLEAR     14  11  87 CALM      30.51S
6HR MIN TEMP:  11; 6HR MAX TEMP:  17;

BEAVER ISLAND  CLOUDY    21  17  83 SE5       30.46S WCI  14
6HR MIN TEMP:  16; 6HR MAX TEMP:  22;

BELLAIRE       PTCLDY    19  16  88 CALM      30.49R
6HR MIN TEMP:  15; 6HR MAX TEMP:  19;

CADILLAC       CLOUDY    24  12  60 S5        30.43R WCI  18
CHARLEVOIX     PTCLDY    21  13  71 SE3       30.50S
6HR MIN TEMP:  18; 6HR MAX TEMP:  22;

FRANKFORT      CLOUDY    27  14  57 CALM      30.46S
GAYLORD        CLOUDY    21   9  59 CALM      30.45R
6HR MIN TEMP:  18; 6HR MAX TEMP:  23;

GRAYLING       CLOUDY    16  12  86 CALM      30.47R
HARBOR SPRINGS CLOUDY    19  14  81 E3        30.48R
HOUGHTON LAKE  CLOUDY    23  13  65 S5        30.48R WCI  17
6HR MIN TEMP:  17; 6HR MAX TEMP:  23;

MANISTEE       CLOUDY    23  21  92 E3        30.47R
OSCODA         CLOUDY    15  10  80 CALM      30.52S
6HR MIN TEMP:  12; 6HR MAX TEMP:  16;

PELLSTON       CLOUDY    17  12  80 S3        30.48S
6HR MIN TEMP:  11; 6HR MAX TEMP:  17;

ROGERS CITY    CLEAR     20  14  79 S3        30.51R
TRAVERSE CITY  MOCLDY    23  12  62 S3        30.47R
6HR MIN TEMP:  18; 6HR MAX TEMP:  23;

$$
MIZ007>008-015-231300-
EASTERN UPPER MICHIGAN

CITY           SKY/WX    TMP DP  RH WIND       PRES   REMARKS
KINROSS        CLOUDY    16  13  88 SE7       30.46F WCI   6
6HR MIN TEMP:  11; 6HR MAX TEMP:  16;

MACKINAC ISLAN CLOUDY    23  13  66 S8        30.47S WCI  13
6HR MIN TEMP:  18; 6HR MAX TEMP:  23;

NEWBERRY       CLOUDY    19  17  93 SE3       30.43S
6HR MIN TEMP:  18; 6HR MAX TEMP:  22;

S. S. MARIE    CLOUDY    15   9  76 E5        30.46F WCI   8
6HR MIN TEMP:  14; 6HR MAX TEMP:  17;

MUNISING         N/A     23  17  78 S7        30.39F WCI  15
6HR MIN TEMP:  22; 6HR MAX TEMP:  24;

$$
MIZ004>006-011>014-085-231300-
CENTRAL UPPER MICHIGAN

CITY           SKY/WX    TMP DP  RH WIND       PRES   REMARKS
MANISTIQUE     PTCLDY    28  21  74 S8        30.42F WCI  20
ESCANABA       CLOUDY    24  21  88 CALM      30.42F
6HR MIN TEMP:  18; 6HR MAX TEMP:  24;

MENOMINEE        N/A    N/A N/A N/A MISG        N/A
SAWYER-GWINN   CLOUDY    23  18  80 S10       30.34F WCI  12
$$
MIZ001>003-009>011-084-231300-
WESTERN UPPER MICHIGAN

CITY           SKY/WX    TMP DP  RH WIND       PRES   REMARKS
IRON MOUNTAIN  CLOUDY    25  15  66 SE7       30.34F WCI  17
6HR MIN TEMP:  20; 6HR MAX TEMP:  25;

HOUGHTON       CLOUDY    27  15  61 S9        30.28F WCI  18
6HR MIN TEMP:  23; 6HR MAX TEMP:  27;

COPPER HARBOR    N/A     31  18  58 S5        30.31S WCI  26
6HR MIN TEMP:  27; 6HR MAX TEMP:  31;

IRONWOOD       LGT SNOW  28  25  86 S7G16     30.26S VSB 1   WCI  21
6HR MIN TEMP:  28; 6HR MAX TEMP:  31; 6HR PCP: TRACE;

$$

ABBREVIATIONS USED IN REMARKS
   TC - TEMPERATURE IN CELSIUS
  WCI - WIND CHILL INDEX
   HX - HEAT INDEX
  VSB - VISIBILITY





USA.gov is the U.S. government's official web portal to all federal, state and local government web resources and services.